Location: Newark
(42.4678°N, 122.8017°W)
Time: 23:33:37
(UTC+00:00)

N. Korean satellite - Pass Details

Date: 29 September 2020
Orbit: 452 x 505 km, 97.2° (Epoch: 29 October)

Event Time Altitude Azimuth Distance (km) Brightness Sun altitude
Rises 12:59:59 0° 26° (NNE) 2,575 10.8 -13.1°
Reaches altitude 10° 13:02:26 10° 42° (NE) 1,678 10.1 -12.7°
Maximum altitude 13:05:17 22° 94° (E) 1,102 9.4 -12.2°
Drops below altitude 10° 13:08:05 10° 147° (SSE) 1,641 9.6 -11.6°
Sets 13:10:26 0° 163° (SSE) 2,502 10.3 -11.2°
